Tracking 19817 objects as of 19-Aug-2019
HD Live streaming from Space Station
objects crossing your sky now

PROMETHEUS 2-6

Track PROMETHEUS 2-6 now!
10-day predictions


NORAD ID: 44386
Int'l Code: 2019-036AB
Perigee: 310.9 km
Apogee: 844.9 km
Inclination: 28.5 °
Period: 96.1 minutes
Semi major axis: 6948 km
RCS: Unknown
Launch date: June 25, 2019
Source: United States (US)
Launch site: AIR FORCE EASTERN TEST RANGE (AFETR)
aabbcc
Your satellite tracking list
Your tracking list is empty




NASA's NSSDC Master Catalog

Two Line Element Set (TLE):
1 44386U 19036AB  19229.22786368  .00016082  00000-0  24436-3 0  9998
2 44386  28.5317 216.2050 0384280 305.6243  50.9128 14.98746633  6649
Source of the keplerian elements: AFSPC